Year,Month,Day,Hour,Minute,Value (Times are PST for temperature in C)
2006,10,12,00,00,7.60
2006,10,12,00,01,7.60
2006,10,12,00,02,7.60
2006,10,12,00,03,7.60
2006,10,12,00,04,7.60
2006,10,12,00,05,7.50
2006,10,12,00,06,7.50
2006,10,12,00,07,7.50
2006,10,12,00,08,7.50
2006,10,12,00,09,7.40
2006,10,12,00,10,7.40
2006,10,12,00,11,7.40
2006,10,12,00,12,7.40
2006,10,12,00,13,7.40
2006,10,12,00,14,7.30
2006,10,12,00,15,7.30
2006,10,12,00,16,7.30
2006,10,12,00,17,7.30
2006,10,12,00,18,7.30
2006,10,12,00,19,7.30
2006,10,12,00,20,7.30
2006,10,12,00,21,7.30
2006,10,12,00,22,7.30
2006,10,12,00,23,7.40
2006,10,12,00,24,7.40
2006,10,12,00,25,7.30
2006,10,12,00,26,7.30
2006,10,12,00,27,7.30
2006,10,12,00,28,7.30
2006,10,12,00,29,7.30
2006,10,12,00,30,7.30
2006,10,12,00,31,7.30
2006,10,12,00,32,7.20
2006,10,12,00,33,7.20
2006,10,12,00,34,7.20
2006,10,12,00,35,7.20
2006,10,12,00,36,7.20
2006,10,12,00,37,7.20
2006,10,12,00,38,7.20
2006,10,12,00,39,7.20
2006,10,12,00,40,7.30
2006,10,12,00,41,7.20
2006,10,12,00,42,7.20
2006,10,12,00,43,7.20
2006,10,12,00,44,7.30
2006,10,12,00,45,7.30
2006,10,12,00,46,7.30
2006,10,12,00,47,7.20
2006,10,12,00,48,7.30
2006,10,12,00,49,7.30
2006,10,12,00,50,7.20
2006,10,12,00,51,7.20
2006,10,12,00,52,7.20
2006,10,12,00,53,7.20
2006,10,12,00,54,7.20
2006,10,12,00,55,7.20
2006,10,12,00,56,7.20
2006,10,12,00,57,7.20
2006,10,12,00,58,7.20
2006,10,12,00,59,7.10
2006,10,12,01,00,7.10
2006,10,12,01,01,7.10
2006,10,12,01,02,7.10
2006,10,12,01,03,7.10
2006,10,12,01,04,7.10
2006,10,12,01,05,7.10
2006,10,12,01,06,7.10
2006,10,12,01,07,7.20
2006,10,12,01,08,7.20
2006,10,12,01,09,7.10
2006,10,12,01,10,7.10
2006,10,12,01,11,7.10
2006,10,12,01,12,7.10
2006,10,12,01,13,7.10
2006,10,12,01,14,7.10
2006,10,12,01,15,7.10
2006,10,12,01,16,7.10
2006,10,12,01,17,7.10
2006,10,12,01,18,7.10
2006,10,12,01,19,7.10
2006,10,12,01,20,7.10
2006,10,12,01,21,7.00
2006,10,12,01,22,7.00
2006,10,12,01,23,7.00
2006,10,12,01,24,7.00
2006,10,12,01,25,7.10
2006,10,12,01,26,7.10
2006,10,12,01,27,7.10
2006,10,12,01,28,7.10
2006,10,12,01,29,7.10
2006,10,12,01,30,7.10
2006,10,12,01,31,7.10
2006,10,12,01,32,7.10
2006,10,12,01,33,7.10
2006,10,12,01,34,7.10
2006,10,12,01,35,7.10
2006,10,12,01,36,7.10
2006,10,12,01,37,7.10
2006,10,12,01,38,7.10
2006,10,12,01,39,7.10
2006,10,12,01,40,7.10
2006,10,12,01,41,7.20
2006,10,12,01,42,7.20
2006,10,12,01,43,7.20
2006,10,12,01,44,7.20
2006,10,12,01,45,7.20
2006,10,12,01,46,7.20
2006,10,12,01,47,7.20
2006,10,12,01,48,7.20
2006,10,12,01,49,7.20
2006,10,12,01,50,7.20
2006,10,12,01,51,7.20
2006,10,12,01,52,7.20
2006,10,12,01,53,7.20
2006,10,12,01,54,7.10
2006,10,12,01,55,7.20
2006,10,12,01,56,7.10
2006,10,12,01,57,7.10
2006,10,12,01,58,7.10
2006,10,12,01,59,7.10
2006,10,12,02,00,7.00
2006,10,12,02,01,7.00
2006,10,12,02,02,7.00
2006,10,12,02,03,7.00
2006,10,12,02,04,7.00
2006,10,12,02,05,7.00
2006,10,12,02,06,7.00
2006,10,12,02,07,7.00
2006,10,12,02,08,7.00
2006,10,12,02,09,6.90
2006,10,12,02,10,6.90
2006,10,12,02,11,6.90
2006,10,12,02,12,6.90
2006,10,12,02,13,6.90
2006,10,12,02,14,6.90
2006,10,12,02,15,6.90
2006,10,12,02,16,6.90
2006,10,12,02,17,6.80
2006,10,12,02,18,6.80
2006,10,12,02,19,6.80
2006,10,12,02,20,6.80
2006,10,12,02,21,6.80
2006,10,12,02,22,6.80
2006,10,12,02,23,6.80
2006,10,12,02,24,6.80
2006,10,12,02,25,6.80
2006,10,12,02,26,6.80
2006,10,12,02,27,6.80
2006,10,12,02,28,6.80
2006,10,12,02,29,6.80
2006,10,12,02,30,6.80
2006,10,12,02,31,6.80
2006,10,12,02,32,6.80
2006,10,12,02,33,6.80
2006,10,12,02,34,6.80
2006,10,12,02,35,6.80
2006,10,12,02,36,6.70
2006,10,12,02,37,6.70
2006,10,12,02,38,6.70
2006,10,12,02,39,6.70
2006,10,12,02,40,6.70
2006,10,12,02,41,6.70
2006,10,12,02,42,6.70
2006,10,12,02,43,6.70
2006,10,12,02,44,6.70
2006,10,12,02,45,6.70
2006,10,12,02,46,6.70
2006,10,12,02,47,6.70
2006,10,12,02,48,6.70
2006,10,12,02,49,6.70
2006,10,12,02,50,6.70
2006,10,12,02,51,6.60
2006,10,12,02,52,6.60
2006,10,12,02,53,6.50
2006,10,12,02,54,6.50
2006,10,12,02,55,6.50
2006,10,12,02,56,6.50
2006,10,12,02,57,6.50
2006,10,12,02,58,6.50
2006,10,12,02,59,6.50
2006,10,12,03,00,6.50
2006,10,12,03,01,6.40
2006,10,12,03,02,6.40
2006,10,12,03,03,6.40
2006,10,12,03,04,6.40
2006,10,12,03,05,6.40
2006,10,12,03,06,6.40
2006,10,12,03,07,6.40
2006,10,12,03,08,6.30
2006,10,12,03,09,6.30
2006,10,12,03,10,6.30
2006,10,12,03,11,6.30
2006,10,12,03,12,6.30
2006,10,12,03,13,6.20
2006,10,12,03,14,6.20
2006,10,12,03,15,6.20
2006,10,12,03,16,6.20
2006,10,12,03,17,6.20
2006,10,12,03,18,6.20
2006,10,12,03,19,6.20
2006,10,12,03,20,6.20
2006,10,12,03,21,6.20
2006,10,12,03,22,6.20
2006,10,12,03,23,6.20
2006,10,12,03,24,6.20
2006,10,12,03,25,6.20
2006,10,12,03,26,6.20
2006,10,12,03,27,6.20
2006,10,12,03,28,6.20
2006,10,12,03,29,6.20
2006,10,12,03,30,6.20
2006,10,12,03,31,6.20
2006,10,12,03,32,6.20
2006,10,12,03,33,6.30
2006,10,12,03,34,6.30
2006,10,12,03,35,6.30
2006,10,12,03,36,6.30
2006,10,12,03,37,6.30
2006,10,12,03,38,6.30
2006,10,12,03,39,6.30
2006,10,12,03,40,6.30
2006,10,12,03,41,6.30
2006,10,12,03,42,6.30
2006,10,12,03,43,6.30
2006,10,12,03,44,6.30
2006,10,12,03,45,6.30
2006,10,12,03,46,6.30
2006,10,12,03,47,6.30
2006,10,12,03,48,6.30
2006,10,12,03,49,6.30
2006,10,12,03,50,6.30
2006,10,12,03,51,6.30
2006,10,12,03,52,6.30
2006,10,12,03,53,6.20
2006,10,12,03,54,6.20
2006,10,12,03,55,6.20
2006,10,12,03,56,6.20
2006,10,12,03,57,6.20
2006,10,12,03,58,6.10
2006,10,12,03,59,6.10
2006,10,12,04,00,6.10
2006,10,12,04,01,6.10
2006,10,12,04,02,6.00
2006,10,12,04,03,6.00
2006,10,12,04,04,6.00
2006,10,12,04,05,6.00
2006,10,12,04,06,5.90
2006,10,12,04,07,5.90
2006,10,12,04,08,5.90
2006,10,12,04,09,5.90
2006,10,12,04,10,5.90
2006,10,12,04,11,5.90
2006,10,12,04,12,5.90
2006,10,12,04,13,5.90
2006,10,12,04,14,5.90
2006,10,12,04,15,5.90
2006,10,12,04,16,5.90
2006,10,12,04,17,5.90
2006,10,12,04,18,5.90
2006,10,12,04,19,5.90
2006,10,12,04,20,5.90
2006,10,12,04,21,5.90
2006,10,12,04,22,5.90
2006,10,12,04,23,5.90
2006,10,12,04,24,5.90
2006,10,12,04,25,5.90
2006,10,12,04,26,5.90
2006,10,12,04,27,5.90
2006,10,12,04,28,5.90
2006,10,12,04,29,5.90
2006,10,12,04,30,5.80
2006,10,12,04,31,5.80
2006,10,12,04,32,5.80
2006,10,12,04,33,5.80
2006,10,12,04,34,5.80
2006,10,12,04,35,5.80
2006,10,12,04,36,5.80
2006,10,12,04,37,5.80
2006,10,12,04,38,5.70
2006,10,12,04,39,5.70
2006,10,12,04,40,5.70
2006,10,12,04,41,5.70
2006,10,12,04,42,5.70
2006,10,12,04,43,5.70
2006,10,12,04,44,5.70
2006,10,12,04,45,5.70
2006,10,12,04,46,5.70
2006,10,12,04,47,5.60
2006,10,12,04,48,5.60
2006,10,12,04,49,5.60
2006,10,12,04,50,5.70
2006,10,12,04,51,5.70
2006,10,12,04,52,5.70
2006,10,12,04,53,5.70
2006,10,12,04,54,5.70
2006,10,12,04,55,5.70
2006,10,12,04,56,5.80
2006,10,12,04,57,5.80
2006,10,12,04,58,5.70
2006,10,12,04,59,5.70
2006,10,12,05,00,5.70
2006,10,12,05,01,5.80
2006,10,12,05,02,5.80
2006,10,12,05,03,5.80
2006,10,12,05,04,5.70
2006,10,12,05,05,5.70
2006,10,12,05,06,5.70
2006,10,12,05,07,5.70
2006,10,12,05,08,5.70
2006,10,12,05,09,5.70
2006,10,12,05,10,5.70
2006,10,12,05,11,5.70
2006,10,12,05,12,5.70
2006,10,12,05,13,5.70
2006,10,12,05,14,5.70
2006,10,12,05,15,5.70
2006,10,12,05,16,5.70
2006,10,12,05,17,5.70
2006,10,12,05,18,5.70
2006,10,12,05,19,5.70
2006,10,12,05,20,5.70
2006,10,12,05,21,5.70
2006,10,12,05,22,5.70
2006,10,12,05,23,5.70
2006,10,12,05,24,5.60
2006,10,12,05,25,5.60
2006,10,12,05,26,5.60
2006,10,12,05,27,5.60
2006,10,12,05,28,5.60
2006,10,12,05,29,5.60
2006,10,12,05,30,5.60
2006,10,12,05,31,5.50
2006,10,12,05,32,5.50
2006,10,12,05,33,5.50
2006,10,12,05,34,5.50
2006,10,12,05,35,5.60
2006,10,12,05,36,5.60
2006,10,12,05,37,5.60
2006,10,12,05,38,5.60
2006,10,12,05,39,5.70
2006,10,12,05,40,5.70
2006,10,12,05,41,5.70
2006,10,12,05,42,5.60
2006,10,12,05,43,5.60
2006,10,12,05,44,5.60
2006,10,12,05,45,5.60
2006,10,12,05,46,5.60
2006,10,12,05,47,5.60
2006,10,12,05,48,5.60
2006,10,12,05,49,5.60
2006,10,12,05,50,5.50
2006,10,12,05,51,5.50
2006,10,12,05,52,5.50
2006,10,12,05,53,5.50
2006,10,12,05,54,5.60
2006,10,12,05,55,5.60
2006,10,12,05,56,5.60
2006,10,12,05,57,5.60
2006,10,12,05,58,5.60
2006,10,12,05,59,5.60
2006,10,12,06,00,5.60
2006,10,12,06,01,5.60
2006,10,12,06,02,5.60
2006,10,12,06,03,5.70
2006,10,12,06,04,5.70
2006,10,12,06,05,5.70
2006,10,12,06,06,5.70
2006,10,12,06,07,5.70
2006,10,12,06,08,5.70
2006,10,12,06,09,5.60
2006,10,12,06,10,5.60
2006,10,12,06,11,5.60
2006,10,12,06,12,5.60
2006,10,12,06,13,5.60
2006,10,12,06,14,5.60
2006,10,12,06,15,5.60
2006,10,12,06,16,5.60
2006,10,12,06,17,5.60
2006,10,12,06,18,5.60
2006,10,12,06,19,5.60
2006,10,12,06,20,5.60
2006,10,12,06,21,5.60
2006,10,12,06,22,5.60
2006,10,12,06,23,5.60
2006,10,12,06,24,5.60
2006,10,12,06,25,5.50
2006,10,12,06,26,5.50
2006,10,12,06,27,5.50
2006,10,12,06,28,5.50
2006,10,12,06,29,5.50
2006,10,12,06,30,5.50
2006,10,12,06,31,5.50
2006,10,12,06,32,5.40
2006,10,12,06,33,5.40
2006,10,12,06,34,5.40
2006,10,12,06,35,5.40
2006,10,12,06,36,5.40
2006,10,12,06,37,5.40
2006,10,12,06,38,5.40
2006,10,12,06,39,5.40
2006,10,12,06,40,5.40
2006,10,12,06,41,5.40
2006,10,12,06,42,5.40
2006,10,12,06,43,5.40
2006,10,12,06,44,5.40
2006,10,12,06,45,5.40
2006,10,12,06,46,5.40
2006,10,12,06,47,5.40
2006,10,12,06,48,5.40
2006,10,12,06,49,5.40
2006,10,12,06,50,5.40
2006,10,12,06,51,5.40
2006,10,12,06,52,5.50
2006,10,12,06,53,5.50
2006,10,12,06,54,5.50
2006,10,12,06,55,5.50
2006,10,12,06,56,5.50
2006,10,12,06,57,5.50
2006,10,12,06,58,5.50
2006,10,12,06,59,5.50
2006,10,12,07,00,5.50
2006,10,12,07,01,5.50
2006,10,12,07,02,5.50
2006,10,12,07,03,5.50
2006,10,12,07,04,5.50
2006,10,12,07,05,5.50
2006,10,12,07,06,5.50
2006,10,12,07,07,5.50
2006,10,12,07,08,5.50
2006,10,12,07,09,5.50
2006,10,12,07,10,5.50
2006,10,12,07,11,5.40
2006,10,12,07,12,5.40
2006,10,12,07,13,5.40
2006,10,12,07,14,5.50
2006,10,12,07,15,5.50
2006,10,12,07,16,5.60
2006,10,12,07,17,5.60
2006,10,12,07,18,5.60
2006,10,12,07,19,5.70
2006,10,12,07,20,5.70
2006,10,12,07,21,5.70
2006,10,12,07,22,5.70
2006,10,12,07,23,5.70
2006,10,12,07,24,5.70
2006,10,12,07,25,5.70
2006,10,12,07,26,5.80
2006,10,12,07,27,5.80
2006,10,12,07,28,5.80
2006,10,12,07,29,5.80
2006,10,12,07,30,5.80
2006,10,12,07,31,5.80
2006,10,12,07,32,5.80
2006,10,12,07,33,5.80
2006,10,12,07,34,5.70
2006,10,12,07,35,5.70
2006,10,12,07,36,5.70
2006,10,12,07,37,5.70
2006,10,12,07,38,5.70
2006,10,12,07,39,5.70
2006,10,12,07,40,5.70
2006,10,12,07,41,5.70
2006,10,12,07,42,5.70
2006,10,12,07,43,5.70
2006,10,12,07,44,5.80
2006,10,12,07,45,5.80
2006,10,12,07,46,5.80
2006,10,12,07,47,5.80
2006,10,12,07,48,5.80
2006,10,12,07,49,5.80
2006,10,12,07,50,5.80
2006,10,12,07,51,5.70
2006,10,12,07,52,5.70
2006,10,12,07,53,5.70
2006,10,12,07,54,5.70
2006,10,12,07,55,5.70
2006,10,12,07,56,5.70
2006,10,12,07,57,5.70
2006,10,12,07,58,5.60
2006,10,12,07,59,5.60
2006,10,12,08,00,5.60
2006,10,12,08,01,5.60
2006,10,12,08,02,5.60
2006,10,12,08,03,5.50
2006,10,12,08,04,5.50
2006,10,12,08,05,5.50
2006,10,12,08,06,5.60
2006,10,12,08,07,5.60
2006,10,12,08,08,5.60
2006,10,12,08,09,5.60
2006,10,12,08,10,5.70
2006,10,12,08,11,5.70
2006,10,12,08,12,5.70
2006,10,12,08,13,5.70
2006,10,12,08,14,5.70
2006,10,12,08,15,5.70
2006,10,12,08,16,5.80
2006,10,12,08,17,5.80
2006,10,12,08,18,5.90
2006,10,12,08,19,6.00
2006,10,12,08,20,6.00
2006,10,12,08,21,6.10
2006,10,12,08,22,6.10
2006,10,12,08,23,6.20
2006,10,12,08,24,6.20
2006,10,12,08,25,6.30
2006,10,12,08,26,6.40
2006,10,12,08,27,6.40
2006,10,12,08,28,6.50
2006,10,12,08,29,6.50
2006,10,12,08,30,6.60
2006,10,12,08,31,6.70
2006,10,12,08,32,6.80
2006,10,12,08,33,6.90
2006,10,12,08,34,7.00
2006,10,12,08,35,7.00
2006,10,12,08,36,7.20
2006,10,12,08,37,7.20
2006,10,12,08,38,7.30
2006,10,12,08,39,7.30
2006,10,12,08,40,7.40
2006,10,12,08,41,7.50
2006,10,12,08,42,7.50
2006,10,12,08,43,7.60
2006,10,12,08,44,7.60
2006,10,12,08,45,7.70
2006,10,12,08,46,7.70
2006,10,12,08,47,7.70
2006,10,12,08,48,7.70
2006,10,12,08,49,7.80
2006,10,12,08,50,7.80
2006,10,12,08,51,7.90
2006,10,12,08,52,8.00
2006,10,12,08,53,8.10
2006,10,12,08,54,8.10
2006,10,12,08,55,8.20
2006,10,12,08,56,8.20
2006,10,12,08,57,8.30
2006,10,12,08,58,8.40
2006,10,12,08,59,8.50
2006,10,12,09,00,8.50
2006,10,12,09,01,8.60
2006,10,12,09,02,8.70
2006,10,12,09,03,8.80
2006,10,12,09,04,8.90
2006,10,12,09,05,9.00
2006,10,12,09,06,9.10
2006,10,12,09,07,9.20
2006,10,12,09,08,9.30
2006,10,12,09,09,9.40
2006,10,12,09,10,9.50
2006,10,12,09,11,9.60
2006,10,12,09,12,9.60
2006,10,12,09,13,9.70
2006,10,12,09,14,9.70
2006,10,12,09,15,9.80
2006,10,12,09,16,9.90
2006,10,12,09,17,10.00
2006,10,12,09,18,10.10
2006,10,12,09,19,10.20
2006,10,12,09,20,10.30
2006,10,12,09,21,10.40
2006,10,12,09,22,10.50
2006,10,12,09,23,10.70
2006,10,12,09,24,10.80
2006,10,12,09,25,10.90
2006,10,12,09,26,11.00
2006,10,12,09,27,11.00
2006,10,12,09,28,11.10
2006,10,12,09,29,11.20
2006,10,12,09,30,11.20
2006,10,12,09,31,11.30
2006,10,12,09,32,11.40
2006,10,12,09,33,11.50
2006,10,12,09,34,11.60
2006,10,12,09,35,11.80
2006,10,12,09,36,11.90
2006,10,12,09,37,12.00
2006,10,12,09,38,12.10
2006,10,12,09,39,12.20
2006,10,12,09,40,12.20
2006,10,12,09,41,12.20
2006,10,12,09,42,12.20
2006,10,12,09,43,12.30
2006,10,12,09,44,12.30
2006,10,12,09,45,12.30
2006,10,12,09,46,12.40
2006,10,12,09,47,12.50
2006,10,12,09,48,12.60
2006,10,12,09,49,12.80
2006,10,12,09,50,12.90
2006,10,12,09,51,12.90
2006,10,12,09,52,13.00
2006,10,12,09,53,13.10
2006,10,12,09,54,13.10
2006,10,12,09,55,13.10
2006,10,12,09,56,13.10
2006,10,12,09,57,13.10
2006,10,12,09,58,13.30
2006,10,12,09,59,13.40
2006,10,12,10,00,13.40
2006,10,12,10,01,13.50
2006,10,12,10,02,13.60
2006,10,12,10,03,13.60
2006,10,12,10,04,13.70
2006,10,12,10,05,13.70
2006,10,12,10,06,13.80
2006,10,12,10,07,13.80
2006,10,12,10,08,13.80
2006,10,12,10,09,13.80
2006,10,12,10,10,13.90
2006,10,12,10,11,13.90
2006,10,12,10,12,13.90
2006,10,12,10,13,13.90
2006,10,12,10,14,14.00
2006,10,12,10,15,14.00
2006,10,12,10,16,14.10
2006,10,12,10,17,14.10
2006,10,12,10,18,14.20
2006,10,12,10,19,14.30
2006,10,12,10,20,14.40
2006,10,12,10,21,14.50
2006,10,12,10,22,14.50
2006,10,12,10,23,14.50
2006,10,12,10,24,14.60
2006,10,12,10,25,14.60
2006,10,12,10,26,14.60
2006,10,12,10,27,14.70
2006,10,12,10,28,14.70
2006,10,12,10,29,14.70
2006,10,12,10,30,14.80
2006,10,12,10,31,14.80
2006,10,12,10,32,14.80
2006,10,12,10,33,14.80
2006,10,12,10,34,14.70
2006,10,12,10,35,14.70
2006,10,12,10,36,14.80
2006,10,12,10,37,14.90
2006,10,12,10,38,15.00
2006,10,12,10,39,15.00
2006,10,12,10,40,14.90
2006,10,12,10,41,14.90
2006,10,12,10,42,14.90
2006,10,12,10,43,15.00
2006,10,12,10,44,15.00
2006,10,12,10,45,15.00
2006,10,12,10,46,15.00
2006,10,12,10,47,15.00
2006,10,12,10,48,14.90
2006,10,12,10,49,14.90
2006,10,12,10,50,14.80
2006,10,12,10,51,14.80
2006,10,12,10,52,14.80
2006,10,12,10,53,14.90
2006,10,12,10,54,14.80
2006,10,12,10,55,14.90
2006,10,12,10,56,14.90
2006,10,12,10,57,15.00
2006,10,12,10,58,15.00
2006,10,12,10,59,15.00
2006,10,12,11,00,15.00
2006,10,12,11,01,15.00
2006,10,12,11,02,15.00
2006,10,12,11,03,15.00
2006,10,12,11,04,15.00
2006,10,12,11,05,15.00
2006,10,12,11,06,15.00
2006,10,12,11,07,15.10
2006,10,12,11,08,15.10
2006,10,12,11,09,15.20
2006,10,12,11,10,15.20
2006,10,12,11,11,15.30
2006,10,12,11,12,15.30
2006,10,12,11,13,15.30
2006,10,12,11,14,15.40
2006,10,12,11,15,15.40
2006,10,12,11,16,15.40
2006,10,12,11,17,15.40
2006,10,12,11,18,15.50
2006,10,12,11,19,15.60
2006,10,12,11,20,15.60
2006,10,12,11,21,15.60
2006,10,12,11,22,15.70
2006,10,12,11,23,15.70
2006,10,12,11,24,15.70
2006,10,12,11,25,15.70
2006,10,12,11,26,15.70
2006,10,12,11,27,15.80
2006,10,12,11,28,15.80
2006,10,12,11,29,15.80
2006,10,12,11,30,15.90
2006,10,12,11,31,15.80
2006,10,12,11,32,15.80
2006,10,12,11,33,15.70
2006,10,12,11,34,15.70
2006,10,12,11,35,15.80
2006,10,12,11,36,15.90
2006,10,12,11,37,15.90
2006,10,12,11,38,16.00
2006,10,12,11,39,16.00
2006,10,12,11,40,16.00
2006,10,12,11,41,15.90
2006,10,12,11,42,16.00
2006,10,12,11,43,16.10
2006,10,12,11,44,16.10
2006,10,12,11,45,16.10
2006,10,12,11,46,16.00
2006,10,12,11,47,15.90
2006,10,12,11,48,15.70
2006,10,12,11,49,15.50
2006,10,12,11,50,15.40
2006,10,12,11,51,15.30
2006,10,12,11,52,15.30
2006,10,12,11,53,15.20
2006,10,12,11,54,15.20
2006,10,12,11,55,15.30
2006,10,12,11,56,15.30
2006,10,12,11,57,15.30
2006,10,12,11,58,15.40
2006,10,12,11,59,15.50
2006,10,12,12,00,15.60
2006,10,12,12,01,15.70
2006,10,12,12,02,15.90
2006,10,12,12,03,16.10
2006,10,12,12,04,16.30
2006,10,12,12,05,16.30
2006,10,12,12,06,16.40
2006,10,12,12,07,16.40
2006,10,12,12,08,16.40
2006,10,12,12,09,16.40
2006,10,12,12,10,16.30
2006,10,12,12,11,16.30
2006,10,12,12,12,16.30
2006,10,12,12,13,16.30
2006,10,12,12,14,16.30
2006,10,12,12,15,16.30
2006,10,12,12,16,16.40
2006,10,12,12,17,16.50
2006,10,12,12,18,16.50
2006,10,12,12,19,16.50
2006,10,12,12,20,16.50
2006,10,12,12,21,16.50
2006,10,12,12,22,16.50
2006,10,12,12,23,16.50
2006,10,12,12,24,16.60
2006,10,12,12,25,16.50
2006,10,12,12,26,16.50
2006,10,12,12,27,16.50
2006,10,12,12,28,16.50
2006,10,12,12,29,16.40
2006,10,12,12,30,16.40
2006,10,12,12,31,16.50
2006,10,12,12,32,16.60
2006,10,12,12,33,16.60
2006,10,12,12,34,16.70
2006,10,12,12,35,16.80
2006,10,12,12,36,16.70
2006,10,12,12,37,16.70
2006,10,12,12,38,16.70
2006,10,12,12,39,16.60
2006,10,12,12,40,16.50
2006,10,12,12,41,16.50
2006,10,12,12,42,16.60
2006,10,12,12,43,16.70
2006,10,12,12,44,16.70
2006,10,12,12,45,16.70
2006,10,12,12,46,16.60
2006,10,12,12,47,16.60
2006,10,12,12,48,16.60
2006,10,12,12,49,16.70
2006,10,12,12,50,16.80
2006,10,12,12,51,16.80
2006,10,12,12,52,16.80
2006,10,12,12,53,16.80
2006,10,12,12,54,16.80
2006,10,12,12,55,16.90
2006,10,12,12,56,16.90
2006,10,12,12,57,16.90
2006,10,12,12,58,16.80
2006,10,12,12,59,16.70
2006,10,12,13,00,16.70
2006,10,12,13,01,16.60
2006,10,12,13,02,16.50
2006,10,12,13,03,16.40
2006,10,12,13,04,16.30
2006,10,12,13,05,16.30
2006,10,12,13,06,16.30
2006,10,12,13,07,16.30
2006,10,12,13,08,16.40
2006,10,12,13,09,16.50
2006,10,12,13,10,16.60
2006,10,12,13,11,16.70
2006,10,12,13,12,16.70
2006,10,12,13,13,16.80
2006,10,12,13,14,16.80
2006,10,12,13,15,16.80
2006,10,12,13,16,17.00
2006,10,12,13,17,17.10
2006,10,12,13,18,17.20
2006,10,12,13,19,17.30
2006,10,12,13,20,17.40
2006,10,12,13,21,17.50
2006,10,12,13,22,17.70
2006,10,12,13,23,17.70
2006,10,12,13,24,17.70
2006,10,12,13,25,17.70
2006,10,12,13,26,17.80
2006,10,12,13,27,17.80
2006,10,12,13,28,17.80
2006,10,12,13,29,17.80
2006,10,12,13,30,17.90
2006,10,12,13,31,17.90
2006,10,12,13,32,18.00
2006,10,12,13,33,17.90
2006,10,12,13,34,17.80
2006,10,12,13,35,17.60
2006,10,12,13,36,17.60
2006,10,12,13,37,17.50
2006,10,12,13,38,17.50
2006,10,12,13,39,17.50
2006,10,12,13,40,17.50
2006,10,12,13,41,17.50
2006,10,12,13,42,17.50
2006,10,12,13,43,17.50
2006,10,12,13,44,17.50
2006,10,12,13,45,17.50
2006,10,12,13,46,17.50
2006,10,12,13,47,17.40
2006,10,12,13,48,17.50
2006,10,12,13,49,17.50
2006,10,12,13,50,17.40
2006,10,12,13,51,17.40
2006,10,12,13,52,17.40
2006,10,12,13,53,17.40
2006,10,12,13,54,17.30
2006,10,12,13,55,17.30
2006,10,12,13,56,17.30
2006,10,12,13,57,17.30
2006,10,12,13,58,17.30
2006,10,12,13,59,17.30
2006,10,12,14,00,17.40
2006,10,12,14,01,17.40
2006,10,12,14,02,17.40
2006,10,12,14,03,17.50
2006,10,12,14,04,17.50
2006,10,12,14,05,17.50
2006,10,12,14,06,17.60
2006,10,12,14,07,17.70
2006,10,12,14,08,17.80
2006,10,12,14,09,17.80
2006,10,12,14,10,17.80
2006,10,12,14,11,17.80
2006,10,12,14,12,17.80
2006,10,12,14,13,17.90
2006,10,12,14,14,17.90
2006,10,12,14,15,17.90
2006,10,12,14,16,17.90
2006,10,12,14,17,17.80
2006,10,12,14,18,17.80
2006,10,12,14,19,17.80
2006,10,12,14,20,17.70
2006,10,12,14,21,17.70
2006,10,12,14,22,17.70
2006,10,12,14,23,17.80
2006,10,12,14,24,17.80
2006,10,12,14,25,17.90
2006,10,12,14,26,17.90
2006,10,12,14,27,17.90
2006,10,12,14,28,17.90
2006,10,12,14,29,17.80
2006,10,12,14,30,17.80
2006,10,12,14,31,17.80
2006,10,12,14,32,17.80
2006,10,12,14,33,17.70
2006,10,12,14,34,17.70
2006,10,12,14,35,17.70
2006,10,12,14,36,17.80
2006,10,12,14,37,17.80
2006,10,12,14,38,17.90
2006,10,12,14,39,17.90
2006,10,12,14,40,18.00
2006,10,12,14,41,18.00
2006,10,12,14,42,18.00
2006,10,12,14,43,17.90
2006,10,12,14,44,17.90
2006,10,12,14,45,17.80
2006,10,12,14,46,17.80
2006,10,12,14,47,17.80
2006,10,12,14,48,17.80
2006,10,12,14,49,17.80
2006,10,12,14,50,17.80
2006,10,12,14,51,17.80
2006,10,12,14,52,17.80
2006,10,12,14,53,17.80
2006,10,12,14,54,17.80
2006,10,12,14,55,17.90
2006,10,12,14,56,17.90
2006,10,12,14,57,17.80
2006,10,12,14,58,17.80
2006,10,12,14,59,17.80
2006,10,12,15,00,17.80
2006,10,12,15,01,17.80
2006,10,12,15,02,17.80
2006,10,12,15,03,17.70
2006,10,12,15,04,17.70
2006,10,12,15,05,17.60
2006,10,12,15,06,17.60
2006,10,12,15,07,17.70
2006,10,12,15,08,17.60
2006,10,12,15,09,17.60
2006,10,12,15,10,17.60
2006,10,12,15,11,17.70
2006,10,12,15,12,17.70
2006,10,12,15,13,17.70
2006,10,12,15,14,17.70
2006,10,12,15,15,17.70
2006,10,12,15,16,17.70
2006,10,12,15,17,17.70
2006,10,12,15,18,17.70
2006,10,12,15,19,17.80
2006,10,12,15,20,17.90
2006,10,12,15,21,18.00
2006,10,12,15,22,18.10
2006,10,12,15,23,18.10
2006,10,12,15,24,18.20
2006,10,12,15,25,18.20
2006,10,12,15,26,18.20
2006,10,12,15,27,18.20
2006,10,12,15,28,18.20
2006,10,12,15,29,18.30
2006,10,12,15,30,18.30
2006,10,12,15,31,18.40
2006,10,12,15,32,18.40
2006,10,12,15,33,18.40
2006,10,12,15,34,18.40
2006,10,12,15,35,18.40
2006,10,12,15,36,18.40
2006,10,12,15,37,18.50
2006,10,12,15,38,18.50
2006,10,12,15,39,18.50
2006,10,12,15,40,18.60
2006,10,12,15,41,18.70
2006,10,12,15,42,18.70
2006,10,12,15,43,18.70
2006,10,12,15,44,18.70
2006,10,12,15,45,18.70
2006,10,12,15,46,18.80
2006,10,12,15,47,18.80
2006,10,12,15,48,18.80
2006,10,12,15,49,18.80
2006,10,12,15,50,18.80
2006,10,12,15,51,18.80
2006,10,12,15,52,18.70
2006,10,12,15,53,18.70
2006,10,12,15,54,18.70
2006,10,12,15,55,18.70
2006,10,12,15,56,18.70
2006,10,12,15,57,18.70
2006,10,12,15,58,18.70
2006,10,12,15,59,18.70
2006,10,12,16,00,18.70
2006,10,12,16,01,18.70
2006,10,12,16,02,18.70
2006,10,12,16,03,18.70
2006,10,12,16,04,18.80
2006,10,12,16,05,18.80
2006,10,12,16,06,18.80
2006,10,12,16,07,18.70
2006,10,12,16,08,18.70
2006,10,12,16,09,18.70
2006,10,12,16,10,18.70
2006,10,12,16,11,18.70
2006,10,12,16,12,18.70
2006,10,12,16,13,18.70
2006,10,12,16,14,18.80
2006,10,12,16,15,18.80
2006,10,12,16,16,18.70
2006,10,12,16,17,18.80
2006,10,12,16,18,18.80
2006,10,12,16,19,18.80
2006,10,12,16,20,18.80
2006,10,12,16,21,18.80
2006,10,12,16,22,18.80
2006,10,12,16,23,18.80
2006,10,12,16,24,18.90
2006,10,12,16,25,18.90
2006,10,12,16,26,18.90
2006,10,12,16,27,19.00
2006,10,12,16,28,19.00
2006,10,12,16,29,19.10
2006,10,12,16,30,19.10
2006,10,12,16,31,19.20
2006,10,12,16,32,19.30
2006,10,12,16,33,19.40
2006,10,12,16,34,19.40
2006,10,12,16,35,19.40
2006,10,12,16,36,19.30
2006,10,12,16,37,19.30
2006,10,12,16,38,19.20
2006,10,12,16,39,19.10
2006,10,12,16,40,19.00
2006,10,12,16,41,19.00
2006,10,12,16,42,19.00
2006,10,12,16,43,19.00
2006,10,12,16,44,19.00
2006,10,12,16,45,19.10
2006,10,12,16,46,19.10
2006,10,12,16,47,19.10
2006,10,12,16,48,19.10
2006,10,12,16,49,19.10
2006,10,12,16,50,19.10
2006,10,12,16,51,19.10
2006,10,12,16,52,19.10
2006,10,12,16,53,19.10
2006,10,12,16,54,19.20
2006,10,12,16,55,19.20
2006,10,12,16,56,19.20
2006,10,12,16,57,19.10
2006,10,12,16,58,19.10
2006,10,12,16,59,19.00
2006,10,12,17,00,18.90
2006,10,12,17,01,18.80
2006,10,12,17,02,18.70
2006,10,12,17,03,18.60
2006,10,12,17,04,18.60
2006,10,12,17,05,18.50
2006,10,12,17,06,18.50
2006,10,12,17,07,18.40
2006,10,12,17,08,18.40
2006,10,12,17,09,18.40
2006,10,12,17,10,18.30
2006,10,12,17,11,18.30
2006,10,12,17,12,18.20
2006,10,12,17,13,18.20
2006,10,12,17,14,18.20
2006,10,12,17,15,18.20
2006,10,12,17,16,18.20
2006,10,12,17,17,18.20
2006,10,12,17,18,18.10
2006,10,12,17,19,18.10
2006,10,12,17,20,18.10
2006,10,12,17,21,18.10
2006,10,12,17,22,18.10
2006,10,12,17,23,18.10
2006,10,12,17,24,18.00
2006,10,12,17,25,18.00
2006,10,12,17,26,17.90
2006,10,12,17,27,17.90
2006,10,12,17,28,17.90
2006,10,12,17,29,17.80
2006,10,12,17,30,17.80
2006,10,12,17,31,17.80
2006,10,12,17,32,17.80
2006,10,12,17,33,17.70
2006,10,12,17,34,17.70
2006,10,12,17,35,17.70
2006,10,12,17,36,17.70
2006,10,12,17,37,17.70
2006,10,12,17,38,17.60
2006,10,12,17,39,17.60
2006,10,12,17,40,17.50
2006,10,12,17,41,17.40
2006,10,12,17,42,17.40
2006,10,12,17,43,17.40